Location: Haieshausen
(51.8387°N, 9.9720°E)
Time: 01:35:29
(UTC+00:00)

Daily predictions for brighter satellites

Satellite Brightness Start Highest point End
(mag) Time Altitude Azimuth Time Altitude Azimuth Time Altitude Azimuth
CZ-4 R/B 3.8 00:02:11 10° NNE 00:06:57 88° W 00:09:37 27° SSW
Cosmos 2242 Rocket 3.8 00:04:00 10° N 00:08:35 69° ENE 00:11:24 23° SSE
Landsat 4 4.1 00:05:11 10° N 00:08:55 54° WNW 00:10:43 27° SW
Cosmos 1441 Rocket 3.8 00:10:43 27° SW 00:12:36 51° WNW 00:16:29 10° N
Lacrosse 5 1.8 00:10:39 21° SW 00:14:06 71° SE 00:19:11 10° ENE
IRAS Rocket 4.5 00:11:58 14° SSE 00:16:37 69° ENE 00:22:07 10° NNW
SL-16 R/B 3.1 00:12:10 10° SE 00:18:15 59° ENE 00:24:25 10° N
Cosmos 1602 4.2 00:17:36 26° SSE 00:19:26 51° E 00:23:11 10° NNE
Meteor 1-4 Rocket 2.7 00:16:22 10° NNW 00:20:02 58° W 00:21:27 33° SSW
BREEZE-M DEB (TANK) 3.9 00:12:50 10° WSW 00:20:42 41° S 00:24:02 10° ESE
Okean 1 3.3 00:17:53 10° N 00:21:53 79° E 00:24:06 25° SSE
Cosmos 1933 Rocket 3.6 00:23:25 27° S 00:25:44 74° E 00:30:05 10° NNE
Cosmos 1607 4.3 00:20:03 11° WSW 00:25:58 63° NW 00:32:19 10° NE
Cosmos 1666 Rocket 4.4 00:23:50 21° SW 00:26:15 40° WNW 00:30:24 10° N
Iridium 4 Rocket 3.7 00:24:13 24° SSW 00:27:43 73° W 00:33:00 10° N
MOZ.5/SAFIR/RUBIN 5/SL-8 4.0 00:25:52 17° SSE 00:29:28 74° ENE 00:34:16 10° NNW
Helios 1B rocket 2.7 00:26:44 10° N 00:30:49 61° WNW 00:33:01 25° SW
Cosmos 1697 Rocket 3.4 00:25:51 10° NNW 00:31:23 53° NE 00:36:52 10° SE
NOSS 2-1 (C) 4.4 00:26:56 10° NW 00:31:50 56° SW 00:38:38 10° SSE
USA 267 4.3 00:32:12 21° SSW 00:34:15 24° SW 00:39:23 10° WNW
Cosmos 1437 Rocket 3.6 00:30:48 10° N 00:34:45 50° ENE 00:38:00 14° SSE
Cosmos 1703 Rocket 3.6 00:30:43 10° N 00:35:13 89° ENE 00:38:06 22° S
NOSS 2-1 (D) 4.5 00:31:41 10° NW 00:36:37 52° SW 00:43:27 10° SSE
SeaSat 1 3.9 00:37:34 10° NE 00:41:45 27° ESE 00:45:02 14° SSE
NOSS 7 (D) 4.4 00:39:53 10° NW 00:42:36 58° NE 00:45:32 10° ESE
CZ-2D R/B 2.8 00:39:52 10° NNE 00:45:03 48° E 00:49:08 16° S
Cosmos 2082 Rocket 4.1 00:41:14 10° SE 00:45:16 20° E 00:49:18 10° NE
SL-4 R/B 4.0 00:45:26 10° WNW 00:46:30 12° NW 00:47:34 10° N
Cosmos 614 Rocket 4.3 00:43:22 21° S 00:46:37 58° ESE 00:51:40 10° NNE
Cosmos 1833 Rocket 3.9 00:44:54 14° SSE 00:48:52 32° ESE 00:53:49 10° NE
Cosmos 2100 Rocket 4.0 00:45:06 19° S 00:49:44 83° E 00:55:59 10° NNE
DELTA 2 DEB (DPAF) 4.1 00:46:50 21° S 00:49:50 73° WSW 00:54:19 10° NNW
Cosmos 1656 3.5 00:45:50 10° NNW 00:51:16 74° WSW 00:56:31 11° SSE
Cosmos 1184 Rocket 2.9 00:49:58 30° SSW 00:51:23 64° WNW 00:54:39 10° N
Meteor 1-25 Rocket 4.3 00:47:42 21° SSW 00:51:29 67° WNW 00:57:04 10° N
Cosmos 1238 Rocket 4.0 00:50:05 20° SW 00:53:23 43° WNW 00:57:37 10° N
COSMOS 2406 3.8 00:49:39 19° S 00:53:39 50° ESE 00:59:12 10° NE
Cosmos 405 Rocket 2.6 00:52:44 25° S 00:54:52 82° E 00:58:39 10° NNE
Cosmos 1140 Rocket 4.3 00:52:12 16° S 00:55:56 42° ESE 01:00:52 10° NE
Cosmos 1459 Rocket 4.0 00:52:49 19° S 00:57:23 87° E 01:03:36 10° N
Meteor 1-29 3.8 00:55:27 10° N 00:58:40 40° WNW 01:00:26 22° SW
Cosmos 407 Rocket 3.9 00:55:13 19° S 00:58:59 57° ESE 01:04:14 10° NNE
Cosmos 220 Rocket 3.9 00:55:24 10° NNW 00:59:39 68° WSW 01:02:53 16° SSE
Cosmos 1500 3.6 00:58:26 19° SSE 01:00:55 56° E 01:04:39 10° NNE
Cosmos 724 4.4 00:59:22 15° SW 01:04:09 71° NW 01:10:02 10° NE
Cosmos 1802 Rocket 4.1 01:03:01 17° S 01:08:09 86° E 01:14:39 10° N
Meteor 1-13 Rocket 4.4 01:06:27 10° N 01:12:16 76° ENE 01:17:53 10° SSE
Cosmos 1515 4.3 01:10:03 10° NNW 01:13:40 41° W 01:15:48 21° SSW
CZ-4C R/B 3.3 01:11:32 20° S 01:14:01 57° WSW 01:17:38 10° NNW
Cosmos 1666 3.8 01:13:11 12° SSE 01:16:24 37° E 01:19:54 10° NNE
ARIANE 5 R/B 4.4 01:12:52 10° NE 01:16:55 23° E 01:20:58 10° SE
Okean 1-7 3.7 01:12:50 10° NNW 01:17:00 41° W 01:19:46 19° SSW
Cosmos 1818 4.4 01:16:46 10° NW 01:22:09 56° NE 01:27:31 10° ESE
ADEOS II 3.0 01:18:16 10° NNE 01:23:18 43° E 01:28:18 10° S
NPP 3.7 01:18:50 10° NNE 01:24:17 83° ESE 01:28:51 15° SSW
Cosmos 1725 Rocket 4.1 01:21:06 13° S 01:26:38 83° E 01:32:56 10° NNE
Resurs 1-4 Rocket 2.1 01:22:36 10° NNE 01:27:57 81° WNW 01:32:21 15° SSW
SL-08 R/B 4.2 01:25:27 10° SE 01:30:04 52° ENE 01:34:49 10° N
ISS -3.8 01:28:14 10° W 01:31:34 65° SSW 01:34:54 10° ESE
AQUA 3.9 01:27:27 10° NNE 01:32:16 82° ESE 01:36:23 14° SSW
Cosmos 1733 Rocket 3.7 01:29:34 10° S 01:33:45 50° E 01:37:57 10° NNE
SL-08 R/B 4.5 01:28:13 14° S 01:33:47 87° W 01:39:59 10° N
UNK 4.3 01:33:05 16° SSW 01:36:27 40° W 01:40:50 10° NNW
Abrixas rocket 2.6 01:35:13 13° WSW 01:37:27 31° SSW 01:40:03 10° SE
Tsikada Rocket 4.1 01:31:35 10° NNW 01:38:01 76° W 01:44:25 10° S
ATLAS 5 CENTAUR R/B 2.3 01:35:52 10° NW 01:41:22 89° WSW 01:47:50 10° SE
USA 215 4.0 01:35:44 10° ENE 01:42:09 58° N 01:48:33 10° WNW
Gbstr 26 Del rocket 3.2 01:40:02 10° W 01:43:59 48° SSW 01:48:40 10° SE
Cosmos 1242 Rocket 3.9 01:42:36 10° N 01:45:53 38° ENE 01:49:09 10° SE
Cosmos 2369 3.9 01:40:48 10° NW 01:46:23 57° WSW 01:51:59 10° S
Cosmos 1980 Rocket 2.2 01:41:32 10° NNW 01:47:18 85° WSW 01:52:59 10° SSE
Cosmos 2061 Rocket 4.2 01:41:58 13° SSW 01:47:34 63° WNW 01:53:51 10° N
SL-8 R/B 4.0 01:46:36 11° WSW 01:51:07 50° SSE 01:55:46 10° E
Okean 3 4.1 01:51:17 10° NNW 01:55:12 39° W 01:58:48 12° SSW
Cosmos 1378 3.9 01:51:37 10° N 01:55:19 53° ENE 01:59:00 10° SSE
IRS-P3 4.5 01:50:41 10° NNE 01:56:00 64° ESE 02:01:18 10° S
Lacrosse 5 2.6 01:52:18 10° W 01:57:18 53° NNW 02:02:18 10° ENE
IDEFIX/ARIANE 42P 4.1 01:54:10 10° NNE 01:58:50 32° E 02:03:27 10° SSE
Cosmos 2016 Rocket 4.4 01:53:42 12° SSW 01:59:14 52° WNW 02:05:22 10° N
SL-16 R/B 3.4 01:57:00 11° SSW 02:02:13 32° W 02:07:47 10° NNW
Cosmos 2278 3.8 02:01:15 10° NW 02:06:52 57° WSW 02:12:26 10° S
Cosmos 1536 2.9 02:02:53 10° SSW 02:06:52 71° WNW 02:10:55 10° N
Cosmos 1356 3.6 02:05:04 10° S 02:08:28 69° E 02:11:55 10° NNE
SL-16 R/B 3.2 02:04:04 10° NNW 02:09:39 53° NE 02:15:12 10° SE
Meteor 1-11 Rocket 3.8 02:04:15 10° SSW 02:09:45 70° WNW 02:15:18 10° N
H-2A R/B 3.0 02:07:01 10° SE 02:11:15 51° ENE 02:15:25 10° N
Cosmos 1190 Rocket 4.5 02:06:38 11° SW 02:11:36 52° WNW 02:16:47 10° NNE
Cosmos 921 Rocket 3.5 02:07:25 10° NNW 02:11:37 42° WSW 02:15:42 10° S
Cosmos 1954 Rocket 4.1 02:08:19 10° SSW 02:13:34 77° WNW 02:18:55 10° NNE
Cosmos 1697 Rocket 3.4 02:10:10 10° NW 02:15:08 33° WSW 02:20:04 10° SSW
Cosmos 1263 4.2 02:14:39 10° N 02:17:41 80° E 02:20:43 10° SSE
SeaSat 1 2.8 02:14:42 10° NNE 02:19:35 61° NW 02:24:26 10° SW
Cosmos 1378 Rocket 3.6 02:17:14 10° NNW 02:21:38 68° W 02:26:01 10° S
Cosmos 1842 4.4 02:18:20 10° N 02:22:10 46° ENE 02:25:59 10° SSE
CZ-4B R/B 4.0 02:19:08 10° N 02:24:00 46° WNW 02:28:42 10° SW
IRS-1D 3.8 02:19:17 10° N 02:24:08 55° WNW 02:28:57 10° SW
CZ-2D R/B 3.2 02:20:15 10° N 02:24:58 33° WNW 02:29:43 10° WSW
Cosmos 2082 Rocket 2.3 02:22:56 10° SSW 02:28:40 84° WNW 02:34:26 10° NNE
Cosmos 1763 Rocket 3.5 02:23:35 10° NNW 02:28:48 67° WSW 02:34:03 10° SSE
CZ-4C R/B 3.4 02:25:48 10° SSE 02:28:58 61° ENE 02:32:07 10° N
Aureole 1 Rocket 4.2 02:26:23 10° SW 02:31:09 51° NW 02:37:30 10° NNE
Cosmos 1833 Rocket 3.1 02:27:05 10° SW 02:32:34 54° NW 02:38:07 10° NNE
Cosmos 1900 4.4 02:30:01 10° SW 02:34:57 87° NW 02:40:00 10° NE
ERS-2 2.2 02:31:50 10° SSE 02:35:29 82° ENE 02:39:09 10° NNW
